[[{"header":{"parameterUnit":"m.s-1","parameterCategory":1,"la1":30.2991,"la2":30.254,"lo1":-89.0895,"lo2":-89.0444,"dy":0.0017,"dx":0.0017,"nx":28,"ny":28,"refTime":"2023-03-22T21:00:00:Z","depth":0,"parameterNumber":2,"parameterNumberName":"U-component_of_WINDS"},"data":[0,0,0,0,0,0,0,0,0,0,0,0,0,0,0,0,0,0,0,0,0,0,0,0,0,0,0,0,0,0,0,0,0,0,0,0,0,0,0,0,0,0,0,0,0,0,0,0,0,0,0,0,0,0,0,0,0,0,-2.0823,-2.0822,0,-2.07,-2.0699,-2.0697,-2.0626,-2.0626,-2.0625,-2.0625,-2.0496,-2.0493,-2.049,0,0,0,0,0,0,0,0,0,0,0,0,0,-2.0995,-2.0992,-2.0824,-2.0822,-2.0821,-2.07,-2.0699,-2.0697,-2.0626,-2.0626,-2.0625,-2.0625,-2.0498,-2.0494,-2.049,0,0,0,0,0,0,0,0,0,0,0,0,0,-2.0901,-2.0991,-2.0824,-2.0771,-2.0765,-2.0701,-2.0698,-2.0696,-2.0626,-2.0626,-2.0625,-2.0625,-2.0499,-2.0494,-2.0489,-2.0468,0,0,-2.0475,-2.0473,0,0,0,0,0,0,0,0,-2.0906,-2.0895,-2.078,-2.0774,-2.0767,-2.0678,-2.0712,-2.062,-2.0626,-2.0679,-2.0625,-2.0625,-2.0557,-2.0547,-2.0525,-2.0462,-2.0456,-2.0474,-2.0472,-2.0469,-2.0468,0,0,0,0,0,0,0,-2.0913,-2.09,-2.0775,-2.0779,-2.0771,-2.0752,-2.0738,-2.0694,-2.0621,-2.0674,-2.0669,-2.0655,-2.0553,-2.053,-2.0522,-2.0454,-2.0475,-2.047,-2.0467,-2.0465,-2.0365,-2.0365,0,0,0,0,0,0,-2.0928,-2.0906,-2.0779,-2.0771,-2.0838,-2.0749,-2.0734,-2.0707,-2.0622,-2.0608,-2.0656,-2.0652,-2.0538,-2.0527,-2.0517,-2.0484,-2.047,-2.0465,-2.0462,-2.0365,-2.0365,-2.0365,0,0,0,0,0,0,-2.0932,-2.0918,-2.0784,-2.0837,-2.0818,-2.0747,-2.0717,-2.0705,-2.0681,-2.0608,-2.0594,-2.0645,-2.0537,-2.0523,-2.048,-2.0479,-2.0463,-2.0459,-2.0365,-2.0365,-2.0365,-2.042,0,0,0,0,0,0,-2.0938,-2.092,-2.0912,-2.0837,-2.0816,-2.075,-2.0717,-2.0703,-2.0673,-2.0668,-2.0594,-2.0582,-2.0536,-2.0488,-2.0475,-2.0472,-2.0455,-2.0364,-2.0365,-2.0365,-2.0418,-2.0422,-2.0426,0,0,0,0,0,-2.0944,-2.0932,-2.0912,-2.0897,-2.0804,-2.075,-2.0738,-2.0686,-2.0674,-2.0664,-2.0617,-2.0584,-2.0481,-2.0484,-2.047,-2.0464,-2.0364,-2.0365,-2.0365,-2.0416,-2.0421,-2.0426,0,0,0,0,0,0,-2.1007,-2.0921,-2.0898,-2.0861,-2.0814,-2.0738,-2.0725,-2.0694,-2.0648,-2.0645,-2.0582,-2.0566,-2.0528,-2.0492,-2.0497,-2.0438,-2.0419,-2.0417,-2.0463,-2.0467,-2.0471,-2.048,-2.0451,0,0,0,0,0,-2.1017,-2.0982,-2.0908,-2.0883,-2.086,-2.0797,-2.0772,-2.0736,-2.0684,-2.0663,-2.0613,-2.0563,-2.0519,-2.0491,-2.0447,-2.0413,-2.0395,-2.0402,-2.0406,-2.041,-2.0408,-2.0385,-2.0387,-2.0367,-2.0367,-2.0367,0,0,-2.1037,-2.0986,-2.0967,-2.0894,-2.0853,-2.0816,-2.078,-2.0743,-2.0715,-2.0657,-2.0613,-2.0574,-2.0514,-2.0475,-2.0455,-2.0444,-2.041,-2.041,-2.0414,-2.041,-2.0386,-2.0388,-2.039,-2.0367,-2.0367,-2.0367,0,0,-2.1054,-2.1012,-2.0986,-2.0945,-2.0884,-2.0841,-2.0835,-2.0764,-2.0737,-2.0692,-2.0647,-2.0612,-2.0538,-2.0497,-2.0466,-2.0467,-2.0434,-2.0454,-2.0474,-2.0452,-2.0454,-2.0455,-2.0453,-2.0454,-2.0453,-2.0453,-2.0453,0,-2.1086,-2.1029,-2.0976,-2.0941,-2.0909,-2.0856,-2.0828,-2.0791,-2.0718,-2.0697,-2.0686,-2.0591,-2.0547,-2.0497,-2.0497,-2.0475,-2.0464,-2.0461,-2.0458,-2.0459,-2.0459,-2.0456,-2.0456,-2.0456,-2.0455,-2.0455,-2.0455,0,-2.1071,-2.1032,-2.1018,-2.0949,-2.0916,-2.0885,-2.0826,-2.0799,-2.0766,-2.0725,-2.0679,-2.0624,-2.0567,-2.0553,-2.0521,-2.0497,-2.0492,-2.047,-2.0449,-2.0464,-2.0461,-2.046,-2.0459,-2.0458,-2.0458,-2.0457,0,0,-2.1123,-2.1025,-2.102,-2.0988,-2.0916,-2.0884,-2.085,-2.0795,-2.0772,-2.0724,-2.0692,-2.0631,-2.061,-2.0575,-2.0538,-2.052,-2.0521,-2.05,-2.0497,-2.0504,-2.049,-2.0505,-2.0505,-2.05,-2.0499,-2.0499,-2.0494,0,-2.1128,-2.1064,-2.1015,-2.0969,-2.0932,-2.0881,-2.0851,-2.0803,-2.0763,-2.0725,-2.0681,-2.0638,-2.0615,-2.0593,-2.0573,-2.0525,-2.0517,-2.0525,-2.0468,-2.0467,-2.0483,-2.0504,-2.052,-2.0518,-2.0493,-2.0493,-2.0492,0,-2.1124,-2.1078,-2.1029,-2.096,-2.0942,-2.0916,-2.0861,-2.0825,-2.0769,-2.0742,-2.0703,-2.0664,-2.0624,-2.0609,-2.0552,-2.0559,-2.0533,-2.0506,-2.0505,-2.0496,-2.048,-2.0494,-2.0517,-2.0516,-2.049,-2.049,-2.0491,0,-2.1165,-2.109,-2.1051,-2.1025,-2.0943,-2.0926,-2.0891,-2.0835,-2.0804,-2.0756,-2.0735,-2.0683,-2.0654,-2.0614,-2.0561,-2.0555,-2.051,-2.049,-2.0484,-2.0486,-2.0476,-2.0477,-2.0493,-2.0462,-2.0462,-2.0462,-2.0462,0,-2.1174,-2.1146,-2.1068,-2.1043,-2.101,-2.0953,-2.0921,-2.0881,-2.0832,-2.0798,-2.0751,-2.072,-2.0653,-2.0614,-2.0573,-2.0531,-2.0519,-2.0495,-2.0484,-2.0498,-2.0501,-2.0478,-2.0477,-2.0462,-2.0462,-2.0462,-2.0462,0,-2.1213,-2.116,-2.1113,-2.104,-2.1021,-2.0999,-2.0936,-2.091,-2.0868,-2.0826,-2.0812,-2.0746,-2.0698,-2.0642,-2.0575,-2.0547,-2.0508,-2.0493,-2.0527,-2.052,-2.0517,-2.0517,-2.0518,-2.0514,-2.0488,-2.0489,-2.0489,0,-2.1222,-2.1199,-2.1123,-2.1097,-2.1064,-2.1023,-2.0992,-2.0935,-2.0904,-2.0838,-2.0819,-2.0767,-2.0722,-2.0647,-2.0592,-2.054,-2.0522,-2.0526,-2.0514,-2.0529,-2.052,-2.0522,-2.0518,-2.0529,-2.053,-2.053,-2.0531,0,-2.1242,-2.1217,-2.1174,-2.1121,-2.1085,-2.1041,-2.0995,-2.0976,-2.091,-2.0877,-2.0827,-2.0792,-2.0724,-2.0672,-2.0613,-2.0576,-2.0542,-2.0535,-2.0531,-2.0544,-2.0564,-2.0551,-2.0534,-2.0535,-2.0534,-2.0534,-2.0534,-2.0534,-2.1264,-2.1241,-2.1184,-2.1137,-2.1096,-2.1054,-2.1025,-2.098,-2.0937,-2.0877,-2.0846,-2.0796,-2.074,-2.0657,-2.0621,-2.0581,-2.0569,-2.0563,-2.0561,-2.056,-2.0564,-2.0572,-2.057,-2.057,-2.057,-2.0569,-2.0569,0,-2.128,-2.1241,-2.1199,-2.1136,-2.1099,-2.1071,-2.1018,-2.0988,-2.0945,-2.0896,-2.0852,-2.0794,-2.0744,-2.0685,-2.0631,-2.0609,-2.0592,-2.0597,-2.0597,-2.0588,-2.0578,-2.0586,-2.0611,-2.0611,-2.0611,-2.0611,-2.0611,-2.0611,-2.1284,-2.1242,-2.121,-2.1147,-2.1108,-2.1059,-2.1031,-2.0991,-2.0951,-2.0888,-2.0846,-2.0809,-2.0755,-2.0696,-2.0648,-2.0632,-2.0614,-2.0623,-2.0602,-2.0593,-2.0589,-2.0586,-2.0593,-2.062,-2.062,-2.0615,-2.0616,-2.0616]},{"header":{"parameterUnit":"m.s-1","parameterCategory":1,"la1":30.2991,"la2":30.254,"lo1":-89.0895,"lo2":-89.0444,"dy":0.0017,"dx":0.0017,"nx":28,"ny":28,"refTime":"2023-03-22T21:00:00:Z","depth":0,"parameterNumber":3,"parameterNumberName":"V-component_of_WINDS"},"data":[0,0,0,0,0,0,0,0,0,0,0,0,0,0,0,0,0,0,0,0,0,0,0,0,0,0,0,0,0,0,0,0,0,0,0,0,0,0,0,0,0,0,0,0,0,0,0,0,0,0,0,0,0,0,0,0,0,0,3.145,3.145,0,3.1437,3.1437,3.1437,3.143,3.143,3.143,3.143,3.1417,3.1416,3.1416,0,0,0,0,0,0,0,0,0,0,0,0,0,3.1473,3.1473,3.145,3.145,3.145,3.1437,3.1437,3.1437,3.143,3.143,3.143,3.143,3.1417,3.1416,3.1416,0,0,0,0,0,0,0,0,0,0,0,0,0,3.1462,3.1473,3.1451,3.1445,3.1445,3.1437,3.1437,3.1437,3.143,3.143,3.143,3.143,3.1417,3.1416,3.1416,3.1412,0,0,3.1414,3.1414,0,0,0,0,0,0,0,0,3.1463,3.1461,3.1446,3.1446,3.1445,3.1435,3.144,3.1428,3.143,3.1436,3.143,3.143,3.1423,3.1422,3.1419,3.1411,3.1411,3.1414,3.1414,3.1413,3.1413,0,0,0,0,0,0,0,3.1463,3.1462,3.1445,3.1446,3.1445,3.1445,3.1443,3.1438,3.1429,3.1435,3.1435,3.1433,3.1423,3.142,3.1419,3.1411,3.1414,3.1414,3.1413,3.1413,3.1403,3.1403,0,0,0,0,0,0,3.1465,3.1462,3.1446,3.1445,3.1454,3.1444,3.1443,3.1439,3.143,3.1428,3.1433,3.1433,3.1421,3.142,3.1418,3.1416,3.1413,3.1413,3.1413,3.1403,3.1403,3.1403,0,0,0,0,0,0,3.1465,3.1463,3.1446,3.1454,3.1451,3.1444,3.1439,3.1438,3.1436,3.1428,3.1427,3.1432,3.1421,3.1419,3.1415,3.1415,3.1413,3.1412,3.1403,3.1403,3.1403,3.141,0,0,0,0,0,0,3.1466,3.1464,3.1461,3.1453,3.1451,3.1442,3.1439,3.1438,3.1435,3.1434,3.1426,3.1425,3.1421,3.1416,3.1414,3.1415,3.1412,3.1403,3.1403,3.1403,3.1409,3.141,3.141,0,0,0,0,0,3.1467,3.1463,3.1461,3.1459,3.1448,3.1442,3.144,3.1435,3.1435,3.1433,3.1429,3.1425,3.1415,3.1415,3.1413,3.1414,3.1403,3.1403,3.1403,3.1409,3.141,3.141,0,0,0,0,0,0,3.1469,3.1461,3.1459,3.1452,3.1448,3.1441,3.1438,3.1436,3.1431,3.1431,3.1425,3.1423,3.142,3.1416,3.1416,3.1412,3.1409,3.1409,3.1414,3.1415,3.1415,3.1417,3.1411,0,0,0,0,0,3.1469,3.1465,3.1458,3.1453,3.1451,3.1445,3.1442,3.1439,3.1434,3.1432,3.1427,3.1423,3.1419,3.1417,3.1412,3.1409,3.1409,3.1409,3.1409,3.141,3.141,3.1411,3.1412,3.1404,3.1404,3.1404,0,0,3.1469,3.1464,3.1461,3.1453,3.1449,3.1446,3.1443,3.1439,3.1437,3.1431,3.1427,3.1424,3.1419,3.1416,3.1414,3.1413,3.1412,3.141,3.141,3.141,3.1411,3.1412,3.1413,3.1404,3.1404,3.1404,0,0,3.1466,3.1461,3.1458,3.1455,3.145,3.1447,3.1446,3.144,3.1438,3.1434,3.1431,3.1429,3.1421,3.1419,3.1417,3.1418,3.1415,3.1417,3.142,3.1421,3.1422,3.1422,3.1425,3.1426,3.1417,3.1417,3.1417,0,3.1466,3.1461,3.1456,3.1453,3.1451,3.1447,3.1445,3.1442,3.1436,3.1435,3.1434,3.1427,3.1423,3.1421,3.1422,3.1419,3.142,3.1417,3.1422,3.1422,3.1423,3.1425,3.1426,3.1417,3.1417,3.1417,3.1417,0,3.1462,3.1459,3.1457,3.1452,3.145,3.1447,3.1444,3.1442,3.144,3.1438,3.1436,3.1431,3.1428,3.1427,3.1424,3.1426,3.1425,3.1423,3.142,3.1424,3.1426,3.1427,3.1418,3.1417,3.1417,3.1417,0,0,3.1459,3.1455,3.1454,3.1454,3.145,3.1447,3.1446,3.1443,3.1443,3.144,3.144,3.1435,3.1435,3.1432,3.1429,3.143,3.1435,3.1428,3.1428,3.1431,3.1439,3.1442,3.1443,3.1433,3.1433,3.1434,3.144,0,3.1457,3.1454,3.1452,3.145,3.1449,3.1447,3.1446,3.1444,3.1443,3.1442,3.144,3.1439,3.1436,3.1435,3.1436,3.1434,3.1437,3.1433,3.1435,3.1435,3.1437,3.1444,3.1446,3.1452,3.1441,3.1441,3.1441,0,3.1454,3.1453,3.1452,3.1451,3.145,3.1449,3.1449,3.1448,3.1447,3.1446,3.1445,3.1443,3.1443,3.1441,3.1442,3.144,3.1441,3.144,3.1441,3.1441,3.1439,3.1446,3.1454,3.1455,3.1442,3.1442,3.1442,0,3.1455,3.1453,3.1453,3.1452,3.145,3.1451,3.145,3.1449,3.1449,3.1449,3.1449,3.1448,3.1448,3.1448,3.1447,3.1445,3.145,3.1446,3.145,3.1451,3.1451,3.1451,3.1461,3.145,3.145,3.145,3.145,0,3.1454,3.1454,3.1453,3.1453,3.1454,3.1452,3.1453,3.1453,3.1453,3.1454,3.1451,3.1452,3.145,3.1451,3.145,3.1453,3.1453,3.1453,3.1453,3.1454,3.1454,3.1455,3.1455,3.145,3.145,3.145,3.145,0,3.1455,3.1454,3.1454,3.1454,3.1454,3.1455,3.1455,3.1456,3.1456,3.1457,3.1457,3.1457,3.1459,3.1458,3.1458,3.1458,3.1463,3.1461,3.1463,3.1463,3.1468,3.1468,3.1479,3.1481,3.1467,3.1467,3.1467,0,3.1454,3.1455,3.1456,3.1457,3.1457,3.1458,3.1459,3.1458,3.1459,3.146,3.1461,3.1463,3.1464,3.1468,3.1468,3.1469,3.1469,3.1473,3.1469,3.1471,3.1471,3.1472,3.1473,3.1474,3.1474,3.1474,3.1474,0,3.1455,3.1456,3.1457,3.1459,3.146,3.1462,3.1463,3.1464,3.1464,3.1465,3.1468,3.1469,3.1472,3.1475,3.1477,3.1477,3.1476,3.1475,3.1477,3.1478,3.148,3.1481,3.1467,3.1475,3.1475,3.1475,3.1475,3.1475,3.1456,3.1458,3.146,3.1462,3.1464,3.1466,3.1468,3.1469,3.1471,3.1474,3.1473,3.1477,3.1479,3.1482,3.1483,3.1487,3.1485,3.1487,3.1487,3.1488,3.149,3.1479,3.1487,3.1487,3.1487,3.1487,3.1487,0,3.1459,3.1461,3.1463,3.1466,3.1469,3.1469,3.1471,3.1473,3.1477,3.1479,3.1481,3.1486,3.1489,3.1491,3.1495,3.1497,3.1497,3.1498,3.1499,3.1499,3.1489,3.1489,3.1499,3.1499,3.1499,3.1499,3.1499,3.1499,3.146,3.1464,3.1465,3.1471,3.1473,3.1477,3.1479,3.1482,3.1484,3.1489,3.1493,3.1494,3.1497,3.1501,3.1505,3.1506,3.1508,3.151,3.151,3.1501,3.15,3.1499,3.1498,3.151,3.151,3.152,3.152,3.152]}]]